Welcome to the New NWS' Forecast!
Most changes are behind the scenes, but click here for differences you might notice.

Regional Weather Roundup (RWR)

Issued by National Weather Service (NWS)

                            
000
NZUS52 KFFC 230710
RWROBS
WEATHER ROUNDUP FOR GEORGIA
NATIONAL WEATHER SERVICE PEACHTREE CITY GA
300 AM EDT TUE OCT 23 2018

NOTE: "FAIR" INDICATES FEW OR NO CLOUDS BELOW 12,000 FEET WITH NO
SIGNIFICANT WEATHER AND/OR OBSTRUCTIONS TO VISIBILITY. 

* = USE WITH CAUTION. THE STATIONS MARKED WITH AN ASTERISK MAY NOT
REPORT WEATHER SUCH AS PRECIPITATION, FOG, OR THUNDER AND ARE NOT 
QUALITY CONTROLLED BY NWS.

THE REMARK "TC" DENOTES TEMPERATURE READING IN DEGREES CELSIUS.

GAZ001>058-230800-
NORTH GEORGIA
  
CITY           SKY/WX    TMP DP  RH WIND       PRES   REMARKS
ATLANTA        MOCLDY    54  42  64 E5        30.22S                  
ATHENS         FAIR      46  42  86 CALM      30.23S                  
CHAMBLEE       FAIR      46  43  89 N3        30.22F                  
PEACHTREE CITY FAIR      48  46  93 CALM      30.22F                  
ROME           FAIR      44  40  85 N6        30.24S                  
WEST ATLANTA   FAIR      46  45  96 CALM      30.22F                  
GAINESVILLE    FAIR      46  41  82 N3        30.25S                  
CARTERSVILLE   FAIR      42  40  92 CALM      30.24F                  
BLAIRSVILLE    FAIR      36  36  99 CALM      30.27S                  
DECATUR        FAIR      42  41  96 CALM      30.24S                  
CLEMSON        FAIR      46  44  93 CALM      30.24S                  
GREENVILLE     FAIR      45  41  86 S3        30.23F                  
FLORENCE       NOT AVBL                                               
CHARLESTON     FAIR      57  53  86 NE6       30.19F                  
MYRTLE BEACH   CLOUDY    55  48  77 N6        30.23F                  
FAYETTEVILLE   FAIR      45  41  86 SW3       30.22F                  
WILMINGTON     CLOUDY    52  49  89 CALM      30.23S                  
RALEIGH        MOCLDY    45  42  89 SW3       30.21F                  
DALTON         FAIR      41  41 100 CALM      30.27S                  
LAWRENCEVILLE  FAIR      43  42  97 CALM      30.23S                  
MARIETTA       FAIR      47  43  84 CALM      30.22S                  
KENNESAW       FAIR      46  42  86 CALM      30.24S                  
WINDER         FAIR      46  41  81 N3        30.26S                  
CANTON         FAIR      43  37  81 CALM      30.25S                  
TOCCOA           N/A     42  39  90 CALM      30.23F                  
CORNELIA       FAIR      42  39  91 NE3       30.24S                  
JASPER         CLOUDY    49  36  59 CALM      30.26F                  
CHARLOTTE      CLOUDY    47  43  86 CALM      30.23F                  
$$

GAZ059>098-102>109-230800-
OTHER STATIONS
  
CITY           SKY/WX    TMP DP  RH WIND       PRES   REMARKS
AUGUSTA-BUSH   FAIR      50  49  96 CALM      30.22S                  
AUGUSTA-DANIEL FAIR      56  48  74 CALM      30.22F                  
COLUMBUS       FAIR      59  51  75 E3        30.18F                  
MACON          FAIR      53  52  96 W3        30.20F                  
ROBINS AFB     FAIR      53  52  96 W3        30.20F                  
GREENSBORO     FAIR      52  46  82 CALM      30.19F                  
THOMSON        FAIR      47  46  94 MISG      30.27F                  
SANDERSVILLE   NOT AVBL                                               
THOMASTON      FAIR      52  46  82 CALM      30.22S                  
BUTLER           N/A     56  51  82 CALM      30.20F                  
LAGRANGE       FAIR      51  51  98 CALM      30.21S                  
MILLEDGEVILLE  FAIR      54  52  94 CALM      30.22S                  
CARROLLTON     FAIR      46  44  94 CALM      30.25F                  
AMERICUS       FAIR      61  54  77 NE3       30.20F                  
CORDELE        CLOUDY    59  56  89 CALM      30.20F                  
SAVANNAH       CLOUDY    63  57  81 NE7       30.19S                  
NEW BERN       FAIR      46  45  96 CALM      30.23F                  
HUNTSVILLE     FAIR      46  44  93 CALM      30.23S                  
$$

GAZ099>101-110>166-230800-
OTHER STATIONS
  
CITY           SKY/WX    TMP DP  RH WIND       PRES   REMARKS
VALDOSTA       FAIR      62  59  90 CALM      30.15F                  
ALMA           MOCLDY    61  57  87 CALM      30.17F                  
ST SIMONS      FAIR      66  62  87 N6        30.14F                  
FT STEWART     CLOUDY    61  57  86 N5        30.16S                  
ALBANY         FAIR      63  57  81 CALM      30.19F                  
HUNTER AFB     FAIR      64  58  79 CALM      30.15F                  
MOODY AFB      FAIR      62  59  91 E5        30.14F                  
BRUNSWICK      FAIR      63  59  88 CALM      30.16S                  
BAINBRIDGE       N/A     63  57  82 CALM      30.16F                  
MOULTRIE       FAIR      63  57  82 CALM      30.17S                  
VIDALIA        FAIR      59  54  82 NE3       30.19F                  
WAYCROSS       FAIR      61  59  91 CALM      30.16F                  
DOUGLAS        FAIR      63  57  82 NE5       30.18F                  
TIFTON         MOCLDY    62  61  96 CALM      30.17S                  
HAZELHURST     FAIR      61  56  83 CALM      30.17F                  
COLUMBIA       FAIR      47  46  97 CALM      30.22F                  
RALEIGH        MOCLDY    45  42  89 SW3       30.21F                  
GREENSBORO     MOCLDY    45  40  82 SW5       30.19F                  
HICKORY        FAIR      42  42 100 CALM      30.21F                  
ASHEVILLE      FAIR      40  38  93 CALM      30.24F                  
KNOXVILLE      MOCLDY    44  43  96 CALM      30.23S                  
NASHVILLE      MOCLDY    45  41  86 CALM      30.22F                  
JACKSONMS      FAIR      54  51  90 CALM      30.17S                  
TUPELO         NOT AVBL                                               
GREENWOOD      FAIR      49  46  90 N3        30.19F                  
MERIDIAN       FAIR      56  51  84 N5        30.17S                  
NEW ORLEANS    CLOUDY    71  68  90 NE7       30.10S                  
$$